Location: Demmingen
(48.6757°N, 10.4375°E)
Time: 21:57:53
(UTC+00:00)

SL-16 R/B - Pass Details

Date: 08 August 2024
Orbit: 842 x 845 km, 71.0° (Epoch: 10 September)

Event Time Altitude Azimuth Distance (km) Brightness Sun altitude
Exits shadow 23:29:21 51° 117° (ESE) 1,054 2.5 -25.5°
Maximum altitude 23:29:32 51° 110° (ESE) 1,051 2.5 -25.5°
Drops below altitude 10° 23:35:00 10° 36° (NE) 2,474 5.3 -25.5°
Sets 23:37:31 0° 32° (NNE) 3,414 6.3 -25.5°
